• In Czech Republic
  • List of Countries
  • For 7 days
  • Water Temperature
  • Satellite Maps
  • Weather Map
  • Weather Widgets
  • user-avatar
    Login

    Hourly Weather Biskira

    Today, 13 December, Wednesday

    Time Temperature Precipitation Wind Pressure Humidity
    00:00 +14°C° 0 mm 2 mps 756 mmHg 39%
    01:00 +13°C° 0 mm 2 mps 756 mmHg 40%
    02:00 +13°C° 0 mm 2 mps 756 mmHg 41%
    03:00 +12°C° 0 mm 1 mps 756 mmHg 42%
    04:00 +12°C° 0 mm 2 mps 757 mmHg 42%
    05:00 +12°C° 0 mm 2 mps 757 mmHg 43%
    06:00 +12°C° 0 mm 2 mps 757 mmHg 43%
    07:00 +13°C° 0 mm 2 mps 758 mmHg 41%
    08:00 +14°C° 0 mm 3 mps 758 mmHg 38%
    09:00 +16°C° 0 mm 3 mps 759 mmHg 36%
    10:00 +17°C° 0 mm 3 mps 759 mmHg 36%
    11:00 +18°C° 0 mm 4 mps 758 mmHg 36%
    12:00 +19°C° 0 mm 4 mps 758 mmHg 35%
    13:00 +19°C° 0 mm 4 mps 758 mmHg 36%
    14:00 +19°C° 0 mm 4 mps 758 mmHg 37%
    15:00 +19°C° 0 mm 4 mps 758 mmHg 38%
    16:00 +18°C° 0 mm 4 mps 758 mmHg 42%
    17:00 +17°C° 0 mm 3 mps 759 mmHg 46%
    18:00 +16°C° 0 mm 3 mps 759 mmHg 50%
    19:00 +14°C° 0 mm 3 mps 759 mmHg 51%
    20:00 +14°C° 0 mm 3 mps 759 mmHg 52%
    21:00 +13°C° 0 mm 3 mps 760 mmHg 53%
    22:00 +13°C° 0 mm 3 mps 760 mmHg 54%
    23:00 +13°C° 0 mm 3 mps 760 mmHg 56%

    Tomorrow, 14 December, Thursday

    Time Temperature Precipitation Wind Pressure Humidity
    00:00 +13°C° 0 mm 2 mps 760 mmHg 57%
    01:00 +13°C° 0 mm 2 mps 760 mmHg 58%
    02:00 +13°C° 0 mm 2 mps 759 mmHg 59%
    03:00 +12°C° 0 mm 2 mps 759 mmHg 60%
    04:00 +12°C° 0 mm 2 mps 759 mmHg 59%
    05:00 +12°C° 0 mm 2 mps 759 mmHg 58%
    06:00 +12°C° 0 mm 2 mps 759 mmHg 58%
    07:00 +13°C° 0 mm 2 mps 759 mmHg 54%
    08:00 +14°C° 0 mm 1 mps 759 mmHg 49%
    09:00 +16°C° 0 mm 1 mps 760 mmHg 45%
    10:00 +18°C° 0 mm 1 mps 759 mmHg 43%
    11:00 +18°C° 0 mm 1 mps 759 mmHg 41%
    12:00 +19°C° 0 mm 1 mps 758 mmHg 39%
    13:00 +20°C° 0 mm 1 mps 758 mmHg 39%
    14:00 +20°C° 0 mm 1 mps 757 mmHg 39%
    15:00 +20°C° 0 mm 1 mps 757 mmHg 38%
    16:00 +19°C° 0 mm 1 mps 757 mmHg 42%
    17:00 +18°C° 0 mm 1 mps 757 mmHg 46%
    18:00 +15°C° 0 mm 1 mps 757 mmHg 51%
    19:00 +15°C° 0 mm 1 mps 757 mmHg 51%
    20:00 +15°C° 0 mm 1 mps 757 mmHg 52%
    21:00 +14°C° 0 mm 1 mps 757 mmHg 52%
    22:00 +14°C° 0 mm 1 mps 756 mmHg 52%
    23:00 +14°C° 0 mm 2 mps 756 mmHg 53%

    Day after tomorrow, 15 December, Friday

    Time Temperature Precipitation Wind Pressure Humidity
    00:00 +13°C° 0 mm 2 mps 756 mmHg 53%
    01:00 +13°C° 0 mm 2 mps 756 mmHg 54%
    02:00 +12°C° 0 mm 2 mps 755 mmHg 55%
    03:00 +12°C° 0 mm 2 mps 755 mmHg 56%
    04:00 +12°C° 0 mm 2 mps 755 mmHg 56%
    05:00 +12°C° 0 mm 2 mps 754 mmHg 55%
    06:00 +12°C° 0 mm 2 mps 754 mmHg 54%
    07:00 +13°C° 0 mm 2 mps 754 mmHg 50%
    08:00 +14°C° 0 mm 2 mps 753 mmHg 46%
    09:00 +15°C° 0 mm 2 mps 753 mmHg 42%
    10:00 +16°C° 0 mm 2 mps 753 mmHg 39%
    11:00 +17°C° 0 mm 2 mps 752 mmHg 37%
    12:00 +18°C° 0 mm 2 mps 752 mmHg 34%
    13:00 +18°C° 0 mm 2 mps 751 mmHg 34%
    14:00 +18°C° 0 mm 3 mps 750 mmHg 34%
    15:00 +18°C° 0 mm 3 mps 750 mmHg 34%
    16:00 +17°C° 0 mm 3 mps 750 mmHg 37%
    17:00 +16°C° 0 mm 3 mps 750 mmHg 40%
    18:00 +15°C° 0 mm 2 mps 750 mmHg 43%
    19:00 +15°C° 0 mm 2 mps 750 mmHg 44%
    20:00 +15°C° 0 mm 2 mps 750 mmHg 44%
    21:00 +15°C° 0 mm 2 mps 750 mmHg 44%
    22:00 +15°C° 0 mm 2 mps 750 mmHg 46%
    23:00 +13°C° 0 mm 3 mps 750 mmHg 48%

    16 December, Saturday

    Time Temperature Precipitation Wind Pressure Humidity
    00:00 +13°C° 0 mm 3 mps 749 mmHg 50%
    01:00 +14°C° 0 mm 2 mps 749 mmHg 54%
    02:00 +13°C° 0 mm 2 mps 748 mmHg 57%
    03:00 +13°C° 0 mm 1 mps 748 mmHg 60%
    04:00 +13°C° 0 mm 2 mps 748 mmHg 59%
    05:00 +13°C° 0 mm 2 mps 748 mmHg 58%
    06:00 +12°C° 0 mm 3 mps 748 mmHg 57%
    07:00 +13°C° 0 mm 3 mps 748 mmHg 54%
    08:00 +14°C° 0 mm 4 mps 749 mmHg 51%
    09:00 +14°C° 0 mm 4 mps 749 mmHg 48%
    10:00 +17°C° 0 mm 4 mps 750 mmHg 45%
    11:00 +18°C° 0 mm 4 mps 750 mmHg 43%
    12:00 +19°C° 0 mm 4 mps 750 mmHg 40%
    13:00 +19°C° 0 mm 4 mps 750 mmHg 41%
    14:00 +19°C° 0 mm 4 mps 750 mmHg 42%
    15:00 +19°C° 0 mm 4 mps 751 mmHg 43%
    16:00 +17°C° 0 mm 4 mps 751 mmHg 46%
    17:00 +16°C° 0 mm 3 mps 752 mmHg 50%
    18:00 +14°C° 0 mm 3 mps 753 mmHg 54%
    19:00 +14°C° 0 mm 3 mps 753 mmHg 56%
    20:00 +13°C° 0 mm 3 mps 754 mmHg 58%
    21:00 +14°C° 0 mm 2 mps 754 mmHg 59%
    22:00 +13°C° 0 mm 2 mps 754 mmHg 60%
    23:00 +13°C° 0 mm 2 mps 754 mmHg 62%

    17 December, Sunday

    Time Temperature Precipitation Wind Pressure Humidity
    00:00 +13°C° 0 mm 2 mps 754 mmHg 63%
    01:00 +12°C° 0 mm 2 mps 754 mmHg 64%
    02:00 +12°C° 0 mm 1 mps 754 mmHg 66%
    03:00 +12°C° 0 mm 1 mps 754 mmHg 67%
    04:00 +11°C° 0 mm 1 mps 754 mmHg 68%
    05:00 +11°C° 0 mm 1 mps 755 mmHg 68%
    06:00 +11°C° 0 mm 1 mps 755 mmHg 69%
    07:00 +12°C° 0 mm 1 mps 755 mmHg 66%
    08:00 +13°C° 0 mm 2 mps 755 mmHg 63%
    09:00 +13°C° 0 mm 2 mps 756 mmHg 60%
    10:00 +14°C° 0 mm 2 mps 756 mmHg 59%
    11:00 +14°C° 0 mm 2 mps 755 mmHg 59%
    12:00 +15°C° 0 mm 2 mps 755 mmHg 58%
    13:00 +15°C° 0 mm 2 mps 755 mmHg 57%
    14:00 +15°C° 0 mm 2 mps 755 mmHg 56%
    15:00 +15°C° 0 mm 2 mps 755 mmHg 55%
    16:00 +15°C° 0 mm 2 mps 755 mmHg 56%
    17:00 +14°C° 0 mm 2 mps 756 mmHg 57%
    18:00 +14°C° 0 mm 1 mps 756 mmHg 58%
    19:00 +13°C° 0 mm 2 mps 757 mmHg 59%
    20:00 +13°C° 0 mm 2 mps 757 mmHg 60%
    21:00 +11°C° 0 mm 3 mps 758 mmHg 61%
    22:00 +11°C° 0 mm 3 mps 758 mmHg 61%
    23:00 +11°C° 0 mm 4 mps 758 mmHg 62%

    18 December, Monday

    Time Temperature Precipitation Wind Pressure Humidity
    00:00 +11°C° 0 mm 4 mps 758 mmHg 62%
    01:00 +11°C° 0 mm 4 mps 758 mmHg 62%
    02:00 +10°C° 0 mm 5 mps 758 mmHg 61%
    03:00 +9°C° 0 mm 5 mps 759 mmHg 60%
    04:00 +9°C° 0 mm 5 mps 759 mmHg 61%
    05:00 +8°C° 0 mm 5 mps 759 mmHg 61%
    06:00 +7°C° 0 mm 6 mps 759 mmHg 62%
    07:00 +8°C° 0 mm 6 mps 760 mmHg 58%
    08:00 +9°C° 0 mm 7 mps 760 mmHg 54%
    09:00 +10°C° 0 mm 7 mps 760 mmHg 50%
    10:00 +11°C° 0 mm 7 mps 760 mmHg 46%
    11:00 +13°C° 0 mm 6 mps 760 mmHg 42%
    12:00 +14°C° 0 mm 6 mps 759 mmHg 38%
    13:00 +14°C° 0 mm 6 mps 759 mmHg 38%
    14:00 +14°C° 0 mm 6 mps 759 mmHg 38%
    15:00 +14°C° 0 mm 6 mps 759 mmHg 37%
    16:00 +13°C° 0 mm 5 mps 759 mmHg 41%
    17:00 +12°C° 0 mm 4 mps 760 mmHg 45%
    18:00 +11°C° 0 mm 4 mps 760 mmHg 48%
    19:00 +10°C° 0 mm 4 mps 760 mmHg 51%
    20:00 +10°C° 0 mm 4 mps 761 mmHg 54%
    21:00 +8°C° 0 mm 4 mps 761 mmHg 57%
    22:00 +8°C° 0 mm 4 mps 761 mmHg 59%
    23:00 +8°C° 0 mm 4 mps 761 mmHg 60%
    Show more